Tracking 25709 objects as of 23-May-2022
HD Live streaming from Space Station
objects crossing your sky now

DELTA 1 DEB

Track DELTA 1 DEB now!
10-day predictions


NORAD ID: 10206
Int'l Code: 1977-065AK
Perigee: 712.8 km
Apogee: 1,577.3 km
Inclination: 29.2 °
Period: 108.1 minutes
Semi major axis: 7516 km
RCS: 0.071 m2 (small)
Launch date: July 14, 1977
Source: United States (US)
Launch site: AIR FORCE EASTERN TEST RANGE (AFETR)

Note: This is SATELLITE DEBRIS
aabbcc
Your satellite tracking list
Your tracking list is empty




NASA's NSSDC Master Catalog

Two Line Element Set (TLE):
1 10206U 77065AK  22142.57741895  .00001286  00000-0  97486-3 0  9995
2 10206  29.2139  99.1417 0575119 157.4186 205.2774 13.32350839115559
Source of the keplerian elements: AFSPC